Wind_Speed
12 11 10 10 11 9 7 6 5 4 3 3 5 6 8 10 10 10 11 11 12 13 13 13 14 15 16 16 17 17 17 19 23 25 25 26 26 25
14 13 11 9 8 7 6 5 3 2 1 1 2 4 6 8 9 10 12 13 14 16 16 16 16 17 17 18 18 19 18 17 21 24 26 25 26 24
19 17 15 13 11 9 7 6 5 6 5 6 6 6 6 9 12 12 13 15 16 18 19 21 19 19 20 19 18 18 17 17 16 22 24 24 25 24
21 20 18 17 15 14 13 11 11 12 13 12 12 14 14 14 15 17 18 19 19 21 23 24 24 24 23 22 20 17 18 14 16 23 25 23 23 23
25 24 22 22 20 19 18 18 18 19 20 21 19 20 21 24 25 23 24 25 26 26 28 29 29 28 27 26 23 20 18 14 15 27 31 26 23 21
26 26 25 26 25 24 24 23 24 25 27 28 28 27 27 27 31 30 31 32 34 35 35 37 37 35 30 29 27 26 20 17 15 16 32 28 24 22
19 20 22 25 26 27 28 26 28 30 31 32 33 34 31 32 34 35 38 37 40 39 41 41 41 41 37 33 34 32 31 26 21 16 32 29 25 23
17 17 19 20 21 22 25 26 29 31 33 34 34 36 35 35 34 37 39 40 43 39 40 42 41 43 42 39 35 36 36 36 33 24 24 34 26 22
19 19 19 20 21 22 23 25 27 29 31 32 31 31 31 33 36 39 40 42 45 45 48 50 46 45 44 46 42 39 42 42 46 39 31 26 26 24
21 20 21 20 21 22 22 23 23 27 30 33 37 36 39 40 44 47 49 52 52 53 55 60 54 56 48 46 47 46 46 47 49 47 41 30 29 26
21 22 22 22 22 24 27 30 31 33 36 38 41 43 43 42 46 49 48 51 52 52 51 53 52 56 56 55 52 47 50 52 51 49 49 43 33 32
25 26 26 26 28 31 33 35 34 32 35 34 33 33 36 36 38 43 48 51 53 52 51 54 50 51 55 50 51 53 51 58 59 54 53 43 30 28
31 31 32 33 34 36 36 36 36 35 35 35 33 36 38 36 37 39 46 47 50 58 52 51 54 55 56 54 54 48 49 59 65 62 52 47 34 29
37 37 37 38 38 39 40 39 37 35 35 35 36 38 32 35 42 50 53 57 57 58 56 55 60 59 60 59 60 54 58 52 56 65 44 28 30 30
36 38 39 40 41 42 41 39 36 34 32 35 31 28 33 40 48 54 58 60 59 56 53 51 55 56 57 61 62 58 53 52 55 45 50 31 35 31
33 33 34 34 35 36 36 33 31 30 29 26 29 32 38 44 50 57 61 60 60 57 51 50 50 48 43 49 58 71 51 55 34 49 29 29 37 29
31 32 31 30 31 31 28 27 29 25 25 29 33 36 42 47 53 55 57 57 56 55 52 52 53 50 45 46 54 62 67 61 44 40 19 28 29 28
29 28 28 29 26 24 26 24 23 25 27 31 36 40 44 49 55 57 54 50 53 53 53 51 49 38 41 48 56 64 52 43 34 15 24 32 32 27
29 27 25 25 26 26 23 23 24 26 29 33 37 41 45 50 55 53 50 50 47 45 46 48 38 34 36 38 45 38 28 32 19 25 26 33 29 22
28 26 25 23 23 24 25 26 27 28 31 35 38 42 45 50 51 47 44 44 43 43 41 26 33 25 18 22 17 17 23 8 7 16 25 28 28 25
28 26 25 25 26 27 28 29 30 32 34 36 39 43 46 47 44 41 40 45 41 40 33 30 30 19 15 8 11 17 14 15 16 20 26 26 26 25
25 26 28 30 31 30 30 31 33 33 36 38 40 43 44 43 41 39 43 39 36 29 29 31 25 18 14 20 16 19 19 17 24 31 29 25 21 18
29 31 32 32 32 32 32 34 34 35 37 39 41 41 39 37 37 36 33 33 29 27 28 25 25 25 24 18 13 11 12 16 16 21 24 21 20 20
Wind_Direction
165 163 164 149 144 141 128 110 97 85 65 26 10 0 357 353 350 349 349 346 344 336 329 325 322 319 315 311 305 311 314 316 319 321 323 324 322 325
183 178 178 181 173 166 160 161 164 173 192 283 320 323 327 323 325 331 328 330 329 324 324 322 318 314 315 312 311 303 302 314 325 321 321 322 319 323
199 199 197 204 205 211 218 226 245 256 254 277 279 289 291 302 309 313 313 314 317 315 313 312 314 310 306 307 306 302 298 301 316 319 315 317 316 319
212 211 212 220 222 228 236 243 252 265 266 264 273 282 282 282 286 292 297 302 305 305 303 305 304 303 303 300 298 290 290 297 310 323 317 313 310 313
223 222 221 228 231 238 246 251 259 265 269 271 271 275 283 290 292 293 296 299 298 295 294 296 297 297 298 297 289 275 285 282 288 342 319 309 305 308
230 232 233 236 241 245 249 254 259 263 266 270 272 275 276 278 282 288 290 289 290 290 291 292 291 293 294 293 289 275 274 278 278 346 319 300 298 298
230 234 238 243 246 250 254 256 262 266 269 272 275 278 279 282 284 287 287 289 285 284 286 285 287 287 286 284 283 279 264 268 267 311 319 290 293 290
237 241 244 247 250 253 257 260 261 265 269 273 278 282 288 286 286 286 285 286 289 289 286 282 278 277 278 277 275 276 270 263 268 271 289 288 280 284
247 248 250 253 255 257 259 264 269 274 275 278 283 286 290 294 291 290 288 286 286 287 285 288 286 283 280 276 270 267 270 262 266 266 273 290 270 274
252 252 253 251 253 257 261 262 268 270 273 276 281 290 291 292 289 288 288 287 287 286 285 284 285 284 281 276 271 265 263 266 261 276 257 285 250 268
252 251 253 254 256 260 264 269 274 279 281 282 282 284 287 288 286 286 290 290 291 291 291 289 291 288 284 280 278 265 260 262 256 270 256 256 269 252
256 258 258 260 264 267 271 276 282 285 283 284 288 294 297 297 291 286 287 287 291 294 298 295 295 295 293 292 281 277 262 255 256 257 253 255 268 242
264 264 268 271 273 276 278 281 287 289 290 292 293 299 303 303 302 302 300 296 295 301 304 297 296 294 293 292 291 284 274 260 255 256 246 257 263 245
270 271 271 272 273 275 277 280 284 287 288 290 293 298 302 307 307 304 304 305 305 304 301 294 290 287 286 284 283 282 280 271 257 255 223 256 241 234
269 270 271 272 272 272 274 275 275 277 281 284 292 301 306 310 308 308 308 310 310 308 307 301 294 287 285 287 282 278 277 272 266 237 219 236 228 234
271 273 273 275 276 276 273 270 271 277 282 287 295 302 306 308 310 311 312 313 310 312 311 308 306 300 290 293 294 280 280 267 252 218 226 227 218 215
271 273 277 278 277 274 271 271 273 271 280 291 298 302 307 307 309 309 310 313 313 315 316 310 306 300 296 306 296 291 282 285 236 221 224 224 210 210
278 275 273 272 274 273 272 268 268 278 289 296 301 306 308 309 310 311 315 317 315 313 310 312 311 300 290 286 289 267 249 230 216 216 239 212 201 205
274 272 270 268 269 269 264 265 275 285 293 299 303 305 307 309 310 315 320 320 319 316 315 317 314 295 298 293 287 274 241 203 208 254 216 212 198 210
268 269 268 267 262 262 267 273 282 289 296 301 302 304 306 308 312 318 322 325 325 321 322 320 332 320 296 297 292 182 189 225 251 203 203 202 202 208
266 264 263 262 265 269 273 277 284 289 296 300 301 304 307 309 315 318 322 323 321 325 336 348 0 12 16 0 197 207 241 245 222 193 198 206 214 225
263 267 268 269 273 276 279 281 285 289 295 298 302 304 306 311 315 317 318 319 322 337 339 337 336 339 313 290 245 260 236 215 202 191 197 202 219 238
265 268 271 274 276 278 281 283 284 288 293 298 300 303 306 310 314 316 317 317 326 336 336 330 308 313 310 296 269 238 203 196 211 227 227 219 225 232
Height
3246 3247 3247 3249 3249 3249 3250 3251 3252 3252 3253 3253 3252 3251 3250 3249 3248 3246 3244 3242 3241 3239 3236 3233 3232 3229 3227 3225 3223 3221 3218 3216 3213 3211 3208 3205 3201 3198
3245 3246 3247 3248 3249 3250 3251 3251 3252 3252 3252 3252 3252 3251 3250 3249 3247 3246 3243 3242 3240 3238 3235 3233 3230 3228 3226 3223 3222 3219 3216 3213 3211 3208 3206 3203 3200 3197
3244 3245 3246 3247 3248 3249 3249 3250 3251 3251 3251 3250 3250 3250 3250 3248 3247 3245 3243 3241 3239 3236 3233 3231 3228 3226 3224 3221 3218 3216 3213 3211 3207 3205 3202 3199 3198 3195
3240 3242 3244 3245 3246 3247 3247 3248 3248 3248 3248 3247 3248 3247 3246 3245 3244 3243 3241 3239 3237 3234 3231 3228 3225 3223 3220 3217 3215 3212 3209 3207 3206 3203 3200 3197 3195 3193
3236 3238 3240 3241 3243 3244 3244 3244 3245 3245 3244 3242 3243 3243 3242 3241 3240 3239 3237 3235 3233 3231 3227 3224 3221 3218 3216 3213 3211 3208 3206 3204 3201 3201 3198 3194 3193 3190
3231 3234 3236 3237 3239 3240 3241 3241 3241 3241 3240 3238 3237 3237 3237 3237 3233 3232 3230 3228 3225 3223 3221 3217 3214 3212 3210 3208 3206 3203 3201 3199 3196 3192 3194 3191 3189 3187
3226 3228 3230 3232 3234 3235 3235 3236 3236 3235 3233 3232 3230 3229 3229 3228 3227 3225 3221 3220 3215 3214 3211 3208 3206 3204 3202 3200 3198 3195 3192 3190 3190 3187 3184 3184 3183 3182
3223 3224 3225 3226 3228 3229 3229 3229 3229 3228 3226 3225 3224 3221 3220 3220 3218 3215 3211 3208 3204 3205 3200 3197 3196 3192 3191 3190 3189 3185 3185 3183 3181 3178 3175 3179 3176 3174
3218 3219 3220 3221 3222 3222 3223 3223 3221 3220 3219 3218 3216 3215 3213 3211 3209 3205 3202 3199 3194 3193 3186 3182 3183 3181 3181 3178 3177 3175 3172 3167 3164 3168 3167 3166 3166 3167
3212 3213 3214 3216 3216 3217 3217 3216 3216 3214 3213 3211 3208 3208 3205 3204 3199 3194 3191 3185 3183 3181 3177 3167 3171 3165 3168 3167 3165 3163 3160 3158 3155 3154 3154 3155 3157 3157
3205 3207 3208 3209 3210 3210 3209 3208 3208 3207 3206 3205 3202 3199 3197 3193 3188 3182 3178 3172 3167 3166 3164 3157 3156 3150 3148 3148 3148 3148 3147 3144 3142 3143 3141 3143 3148 3148
3199 3200 3201 3203 3203 3203 3201 3200 3199 3200 3197 3195 3192 3190 3187 3185 3181 3175 3169 3162 3156 3149 3152 3144 3143 3139 3130 3131 3132 3131 3127 3125 3126 3126 3123 3129 3139 3138
3191 3192 3193 3193 3193 3193 3191 3190 3190 3189 3187 3185 3183 3182 3179 3176 3173 3168 3162 3152 3146 3137 3141 3133 3128 3124 3118 3113 3111 3111 3112 3105 3103 3109 3110 3118 3128 3131
3181 3183 3183 3183 3183 3182 3181 3181 3181 3179 3177 3176 3174 3173 3170 3166 3162 3156 3151 3145 3139 3131 3127 3121 3110 3107 3102 3098 3094 3095 3091 3079 3079 3094 3088 3104 3116 3121
3172 3173 3173 3173 3172 3172 3171 3171 3170 3169 3167 3166 3164 3163 3160 3157 3151 3143 3138 3129 3121 3116 3110 3105 3096 3092 3085 3079 3076 3075 3074 3067 3073 3069 3083 3092 3102 3110
3163 3163 3163 3163 3162 3161 3161 3161 3161 3159 3157 3157 3156 3154 3151 3147 3142 3133 3124 3117 3105 3099 3092 3085 3080 3074 3071 3064 3060 3051 3048 3044 3050 3066 3074 3079 3089 3100
3153 3154 3153 3153 3152 3151 3151 3152 3152 3151 3150 3149 3147 3145 3142 3137 3131 3123 3116 3106 3096 3085 3079 3071 3063 3056 3056 3052 3044 3040 3039 3038 3039 3052 3063 3070 3081 3091
3143 3144 3144 3144 3143 3144 3145 3145 3144 3144 3143 3141 3138 3134 3130 3125 3118 3113 3105 3096 3086 3078 3067 3058 3051 3045 3043 3041 3034 3030 3026 3025 3034 3049 3059 3067 3074 3083
3134 3135 3135 3136 3136 3136 3137 3138 3138 3136 3135 3132 3129 3125 3120 3115 3107 3100 3093 3085 3075 3066 3058 3050 3041 3035 3031 3027 3024 3028 3034 3039 3045 3049 3057 3064 3072 3079
3125 3126 3127 3128 3128 3129 3130 3130 3129 3127 3126 3123 3120 3116 3111 3105 3098 3092 3084 3076 3068 3059 3051 3042 3035 3026 3024 3024 3024 3029 3032 3038 3043 3047 3053 3061 3068 3072
3117 3118 3118 3119 3120 3120 3120 3120 3119 3118 3116 3114 3110 3106 3101 3096 3090 3084 3077 3071 3064 3055 3046 3039 3033 3027 3024 3026 3028 3033 3036 3038 3043 3050 3055 3061 3065 3069
3108 3109 3110 3110 3110 3110 3110 3110 3109 3107 3106 3103 3100 3096 3091 3085 3080 3075 3070 3063 3057 3049 3043 3039 3037 3035 3035 3035 3033 3034 3034 3037 3042 3046 3051 3057 3063 3067
3099 3099 3100 3100 3100 3100 3100 3099 3098 3097 3094 3092 3089 3086 3082 3077 3072 3069 3064 3058 3051 3044 3039 3038 3036 3035 3034 3033 3032 3033 3035 3040 3044 3047 3049 3053 3057 3060